Overview Statistics Trail Chart Weather Telemetry Raw packets
 

This is the latest recevied weather packets stored in our database for station/object 4S6DRJ-13. If no packets are shown the sender has not sent any weather packets the latest 10 day(s).

<< 529 530 531 532 533 534 535 >>
Time Temp. Humidity Pressure Rain* Wind** Luminosity Snow
1787637286 30.56° C 75% 1011.1 hPa 0 mm 2.24 m/s, 300° 1124 W/m² -
1787637225 30.56° C 76% 1011.1 hPa 0 mm 0.45 m/s, 102° 1123 W/m² -
1787637164 30.56° C 76% 1011 hPa 0 mm 2.24 m/s, 241° 1119 W/m² -
1787637103 30.56° C 75% 1011 hPa 0 mm 3.58 m/s, 199° 1119 W/m² -
1787637042 30.56° C 74% 1010.8 hPa 0 mm 4.47 m/s, 216° 860 W/m² -
1787636981 30.56° C 75% 1010.9 hPa 0 mm 2.24 m/s, 231° 415 W/m² -
1787636920 30.56° C 75% 1011.1 hPa 0 mm 2.68 m/s, 228° 457 W/m² -
1787636859 30.56° C 75% 1010.9 hPa 0 mm 1.34 m/s, 222° 1126 W/m² -
1787636798 30.56° C 76% 1011 hPa 0 mm 2.24 m/s, 191° 605 W/m² -
1787636737 30.56° C 75% 1011 hPa 0 mm 1.34 m/s, 256° 1125 W/m² -
1787636676 30.56° C 75% 1011.1 hPa 0 mm 2.24 m/s, 236° 389 W/m² -
1787636615 30° C 77% 1011.1 hPa 0 mm 1.34 m/s, 224° 1130 W/m² -
1787636554 30° C 77% 1011.1 hPa 0 mm 0.89 m/s, 87° 1119 W/m² -
1787636493 30° C 77% 1011 hPa 0 mm 0 m/s 1118 W/m² -
1787636433 30° C 76% 1011 hPa 0 mm 1.79 m/s, 236° 352 W/m² -
1787636371 30° C 76% 1011.3 hPa 0 mm 1.79 m/s, 290° 1128 W/m² -
1787636310 30° C 75% 1011.1 hPa 0 mm 3.13 m/s, 302° 478 W/m² -
1787636249 30.56° C 76% 1011.1 hPa 0 mm 2.24 m/s, 297° 1114 W/m² -
1787636188 30° C 76% 1011.2 hPa 0 mm 2.24 m/s, 309° 1125 W/m² -
1787636127 30° C 77% 1011.1 hPa 0 mm 1.34 m/s, 335° 341 W/m² -
1787636066 30° C 76% 1011.3 hPa 0 mm 1.79 m/s, 298° 1128 W/m² -
1787636005 30.56° C 76% 1011.1 hPa 0 mm 1.79 m/s, 229° 1127 W/m² -
1787635945 30.56° C 75% 1011.3 hPa 0 mm 2.68 m/s, 224° 1122 W/m² -
1787635883 30.56° C 76% 1011.1 hPa 0 mm 2.24 m/s, 227° 391 W/m² -
1787635822 30° C 76% 1011.2 hPa 0 mm 1.79 m/s, 229° 1126 W/m² -

* Rain latest hour (hover to see other rain measurements)
** Current wind speed in m/s (hover to see current wind gust speed)